Regional Weather Roundup
Issued by NWS Cleveland, OH

Home | Current Version | Previous Version | Graphics & Text | Print | Product List | Glossary On
Versions: 1 2 3 4 5 6 7 8 9 10 11 12 13 14 15 16 17 18 19 20 21 22 23 24 25 26 27 28 29 30 31 32 33 34 35 36 37 38 39 40 41 42 43 44 45 46 47 48 49 50
165
ASUS41 KCLE 250512
RWRCLE
OHIO REGIONAL WEATHER ROUNDUP
NATIONAL WEATHER SERVICE WILMINGTON, OH
100 AM EDT THU AUG 25 2016

NOTE: "FAIR" INDICATES FEW OR NO CLOUDS BELOW 12,000 FEET WITH NO
SIGNIFICANT WEATHER AND/OR OBSTRUCTIONS TO VISIBILITY.

OHZ001>008-015>018-024>027-034-035-043-044-250600-
   NORTHWEST OHIO

CITY           SKY/WX    TMP DP  RH WIND       PRES   REMARKS
DEFIANCE       FAIR      73  71  93 SW6       30.00R
FINDLAY        FAIR      75  71  87 SW8       29.99R
TOLEDO EXPRESS FAIR      72  72 100 SW8       29.98R
TOLEDO EXEC    FAIR      73  72  96 SW6       29.98R
LIMA           FAIR      74  73  97 SW10      30.02S
$$

OHZ009>014-019>023-028>033-038-089-250600-
   NORTHEAST OHIO

CITY           SKY/WX    TMP DP  RH WIND       PRES   REMARKS
CLE-HOPKINS    LGT RAIN  75  71  87 NW14      30.00S FOG
CLE-LAKEFRONT  HVY RAIN  75  72  90 S8        29.95F FOG
CUY CO. ARPT   NOT AVBL
LORAIN-ELYRIA  CLOUDY    74  71  91 SW12      29.98S
ASHTABULA      CLOUDY    76  68  76 S9        30.01F
AKRON-CANTON   MOCLDY    77  67  71 S16       30.02F
WOOSTER        LGT RAIN  74  70  87 S13G22    30.02S
MANSFIELD      NOT AVBL
YOUNGSTOWN     CLOUDY    76  66  71 S9        30.03F
$$

OHZ042-051>053-060>062-070>072-077>081-250600-
  SOUTHWEST OHIO

CITY           SKY/WX    TMP DP  RH WIND       PRES   REMARKS
CINC-COVINGTON FAIR      79  73  82 SW10G17   30.08R
CINC-LUNKEN    FAIR      77  73  87 SW7       30.07R
HAMILTON       FAIR      80  72  76 SW6       30.06S
DAYTON         CLOUDY    73  67  81 S7        30.06F
WRIGHT-PAT AFB CLOUDY    75  69  82 W12G17    30.04S THUNDER
DAYTON GENERAL FAIR      79  71  76 SW8       30.05S
WILMINGTON     FAIR      76  72  87 SW12      30.07F
$$

OHZ036-037-039>041-045>050-054>059-063>069-073>076-082>088-250600-
  CENTRAL AND SOUTHEAST OHIO

CITY           SKY/WX    TMP DP  RH WIND       PRES   REMARKS
COLUMBUS       NOT AVBL
OSU AIRPORT    TSTM      76  73  91 SW30G41   30.07R FOG
BOLTON FIELD   CLOUDY    77  73  86 SW12      30.05S THUNDER
RICKENBACK AFB FAIR      77  71  83 S10       30.05S
NEWARK         MOCLDY    77  71  82 SW8       30.04F
MARION         FAIR      74  72  93 SW10      30.02F
LANCASTER      FAIR      78  71  79 S10       30.06S
ZANESVILLE     FAIR      76  70  82 S12       30.06F
NEW PHILLY     FAIR      79  68  69 VRB7      30.04F
$$




USA.gov is the U.S. government's official web portal to all federal, state and local government web resources and services.